Location: Hilde
(52.9479°N, 6.4449°E)
Time: 07:04:47
(UTC+00:00)

COSMOS 2406 - Pass Details

Date: 15 May 2026
Orbit: 846 x 859 km, 71.0° (Epoch: 5 June)

Event Time Altitude Azimuth Distance (km) Brightness Sun altitude
Rises 21:23:07 0° 225° (SW) 3,425 6.2 -12.9°
Reaches altitude 10° 21:25:37 10° 229° (SW) 2,492 5.5 -13.1°
Maximum altitude 21:31:15 57° 308° (NW) 1,008 3.9 -13.5°
Drops below altitude 10° 21:36:55 10° 27° (NNE) 2,501 6.1 -13.9°
Sets 21:39:27 0° 32° (NNE) 3,439 6.8 -14.1°
